Location: Sevilla
(37.3933°N, 5.9839°W)
Time: 05:09:06
(UTC+02:00)

Vanguard 3 - Pass Details

Date: 26 June 2024
Orbit: 508 x 3231 km, 33.4° (Epoch: 15 July)

Event Time Altitude Azimuth Distance (km) Brightness Sun altitude
Rises 10:43:25 0° 249° (WSW) 6,400 11.3 40.5°
Reaches altitude 10° 10:48:19 10° 246° (WSW) 4,998 10.8 41.5°
Maximum altitude 11:01:06 61° 171° (S) 1,698 9.6 44.0°
Drops below altitude 10° 11:08:11 10° 92° (E) 2,876 11.0 45.4°
Sets 11:10:18 0° 89° (E) 3,583 11.2 45.9°
